Wetbulb
66.35 65.57 60.98 59.01 47.64 46.89 43.99 48.75 53.46 56.33 57.06 58.61 57.53 56.43 54.22 56.14 55.72 52.43 63.75 70.05 69.54 70.02 71.81 73.02 74.02 73.67 73.54 72.99 72.65 72.10 71.68 71.38 71.10 70.47 69.63 68.88 68.62 67.68 67.38 67.33 66.90 66.88 66.91 67.28 67.41 67.76 68.16 68.22 67.76
63.97 60.86 56.91 54.78 45.23 42.88 44.32 52.00 54.17 56.63 59.25 59.88 58.64 55.92 55.08 57.45 64.30 63.94 65.48 70.28 69.96 69.89 70.94 71.39 74.02 73.49 73.44 73.07 72.72 72.16 71.93 71.78 71.41 70.94 69.63 68.83 69.08 68.65 67.81 67.57 67.25 67.52 67.89 68.21 68.27 68.52 69.13 69.83 69.72
65.42 63.32 50.09 48.61 47.13 45.01 46.01 52.77 55.61 59.50 61.31 60.12 58.74 58.29 57.14 57.56 64.11 64.82 66.18 70.83 70.18 69.70 70.14 70.88 73.95 73.65 73.56 73.22 72.83 72.41 72.16 72.06 71.96 71.03 70.52 69.88 69.64 70.06 69.99 68.73 68.59 68.55 68.83 69.36 69.57 69.42 69.61 69.85 71.18
60.88 56.34 51.45 46.32 47.58 52.23 52.32 55.60 58.92 59.49 60.70 61.70 61.15 55.75 59.95 63.73 62.97 65.20 70.58 71.09 70.05 70.03 69.40 72.80 73.67 73.57 73.45 73.39 73.15 72.90 72.58 72.48 72.28 71.83 71.11 70.68 70.44 71.17 70.93 69.89 69.42 69.19 69.30 69.54 70.31 70.85 71.20 70.88 71.02
58.66 52.93 43.62 44.26 47.76 52.98 55.16 56.42 58.99 58.20 59.97 60.42 60.69 56.94 58.42 63.17 65.42 66.39 68.97 71.45 69.92 69.38 68.95 71.86 73.82 74.02 73.80 73.77 73.57 73.07 72.85 72.55 72.65 72.58 72.03 71.61 72.01 71.86 71.62 70.57 70.31 70.23 70.67 71.04 71.11 71.24 70.99 70.58 70.44
49.95 49.61 42.23 42.30 48.08 53.41 55.68 57.06 58.14 58.70 60.13 59.83 57.32 57.98 57.68 62.94 63.60 64.80 66.51 69.50 70.56 69.30 69.46 70.99 73.47 74.06 73.81 73.75 73.60 73.02 72.87 72.77 72.70 72.72 72.58 72.43 72.33 72.25 71.67 71.25 71.02 71.27 71.34 71.19 70.79 70.70 70.68 70.68 70.02
48.75 44.65 43.19 45.86 48.15 51.59 54.82 57.49 54.57 54.53 54.63 55.86 56.53 55.74 58.41 60.72 61.99 62.75 63.01 63.40 70.20 70.46 70.41 70.82 71.18 72.73 74.26 73.71 73.29 73.19 72.76 72.61 72.63 72.29 72.22 72.52 72.67 72.51 72.31 72.29 72.32 71.71 71.15 70.46 70.12 69.58 69.38 70.14 69.90
52.08 46.20 43.07 45.62 48.16 49.55 55.63 56.58 56.22 54.96 55.69 60.38 60.40 54.97 53.83 59.59 62.56 61.94 61.11 59.98 59.36 70.05 71.04 70.43 70.56 70.30 71.09 71.77 73.90 73.44 73.10 72.92 72.69 72.67 72.53 72.62 72.73 72.68 72.53 71.77 72.04 71.07 70.36 69.72 69.50 68.35 68.21 68.55 69.96
56.47 42.98 40.89 45.47 47.95 50.98 56.12 54.98 57.77 59.35 57.87 59.09 60.22 59.47 60.80 62.59 61.22 58.86 57.36 58.62 57.70 68.63 70.87 70.60 70.24 70.04 69.73 70.18 72.52 73.43 73.84 73.31 73.05 72.90 72.83 72.01 69.53 69.21 69.66 70.91 71.40 70.94 70.24 69.77 68.97 68.29 67.53 67.68 68.31
55.69 45.74 45.54 50.01 50.99 51.09 54.57 55.22 56.26 56.87 56.38 57.07 59.09 61.63 62.66 63.06 60.73 58.51 57.37 55.58 56.51 58.18 69.78 70.69 70.51 70.14 69.58 69.89 70.09 71.30 71.66 71.62 71.71 71.35 70.89 69.87 67.86 65.14 67.39 69.31 72.16 70.61 70.90 70.21 68.82 67.85 67.29 67.15 64.49
54.24 50.48 52.99 52.67 53.26 54.05 54.17 55.08 57.27 56.27 54.14 57.14 56.54 59.60 60.98 61.46 61.09 58.61 57.62 56.92 57.11 58.36 65.00 70.44 70.49 70.59 70.06 69.46 69.51 70.54 70.37 70.89 71.17 69.97 68.87 68.61 67.24 66.04 66.78 65.27 67.61 65.96 69.16 64.64 65.89 64.85 64.77 64.75 64.41
49.54 52.74 54.26 54.49 54.85 54.06 53.07 55.84 55.24 56.03 55.60 57.95 58.55 59.07 59.25 59.06 58.21 58.13 57.88 58.10 58.21 58.44 58.52 69.88 70.74 70.43 69.86 69.29 68.89 69.58 69.20 69.47 69.57 69.35 67.83 67.84 66.79 66.29 65.03 64.85 65.07 64.27 63.68 62.95 63.13 63.30 63.39 64.25 64.97
51.22 52.51 53.87 54.82 55.09 54.79 55.62 54.26 54.64 55.29 58.11 58.76 58.76 58.72 58.00 58.17 58.60 58.97 59.33 59.42 59.30 58.35 60.49 66.74 70.27 70.50 69.95 67.78 69.16 69.42 68.75 68.93 68.71 68.61 68.10 67.11 66.77 64.59 64.32 63.91 64.39 64.34 64.19 63.94 64.01 63.14 63.90 64.52 63.44
48.71 52.30 53.70 54.30 53.73 54.45 53.74 53.98 54.65 55.42 57.26 57.16 57.38 56.70 57.44 58.05 58.55 58.15 58.91 58.78 58.65 58.99 59.85 64.54 68.34 70.02 69.48 68.22 68.92 69.33 69.24 68.85 68.46 68.31 68.28 67.49 66.11 64.31 64.92 65.45 65.07 63.90 64.58 63.90 63.50 63.34 63.28 62.15 62.22
48.92 45.92 48.68 51.22 52.98 52.63 54.71 51.28 51.97 55.92 56.86 56.30 56.15 56.93 57.26 57.46 58.66 58.58 58.36 58.48 59.08 60.80 60.89 65.36 66.43 68.07 68.65 68.30 67.09 69.02 69.32 69.06 68.28 67.10 68.05 68.00 66.26 65.08 65.69 64.65 64.01 64.77 64.52 63.88 63.33 63.24 63.10 62.42 62.34
46.07 46.04 41.71 47.86 50.07 52.34 52.95 46.74 52.74 55.24 55.31 55.01 56.26 57.25 57.46 57.24 58.51 58.60 59.36 58.98 61.35 60.85 61.55 64.28 68.86 68.14 68.40 67.76 68.30 68.04 68.77 68.24 67.62 66.90 68.24 67.90 66.37 66.18 65.51 64.30 63.77 65.26 64.98 64.49 63.07 62.14 62.03 61.58 61.13
42.69 39.28 41.30 44.46 50.16 50.11 49.92 47.62 52.43 55.11 54.83 54.64 55.39 56.36 56.87 57.44 57.46 58.38 59.94 60.38 61.03 61.75 60.80 64.74 67.00 68.31 68.41 67.83 67.48 68.55 67.81 66.64 66.20 65.36 65.73 67.68 67.49 67.42 65.04 64.32 63.59 65.15 64.48 63.82 63.19 62.89 61.93 60.71 60.81
38.23 39.82 42.60 42.75 47.60 49.48 48.28 48.07 51.66 53.74 54.18 54.02 54.87 55.86 56.42 56.92 57.35 57.93 58.65 60.59 59.51 60.12 63.22 64.07 64.96 68.89 69.24 69.83 68.13 68.22 68.15 65.85 65.78 64.87 64.94 66.32 66.97 67.06 65.62 64.80 64.22 64.56 63.56 63.21 62.57 61.50 61.57 60.83 60.49
43.19 42.59 41.90 45.03 48.91 47.80 47.14 47.65 50.01 52.72 52.96 52.66 53.24 53.01 54.52 54.96 56.70 57.32 59.30 60.20 59.70 59.97 62.29 63.89 66.29 69.01 70.18 69.31 68.27 66.77 65.98 64.62 64.54 65.08 66.25 66.54 66.48 66.31 64.94 64.08 64.17 63.80 62.40 61.77 61.40 60.86 60.21 59.07 59.85
42.51 40.47 40.40 44.79 48.22 46.75 46.24 46.01 49.94 51.28 51.45 52.20 52.97 53.30 53.86 54.78 55.50 57.01 57.25 58.45 59.53 59.84 64.38 66.59 68.65 69.76 69.67 69.55 68.17 66.83 65.41 64.14 64.15 65.12 64.66 65.58 64.97 64.83 65.11 63.93 63.88 62.34 61.55 61.22 60.46 59.98 58.44 58.40 58.67
41.52 40.19 40.61 40.97 45.22 46.44 44.60 43.18 46.06 49.81 51.72 53.37 53.93 53.87 54.33 55.25 53.72 54.96 55.47 55.42 58.11 65.03 66.25 68.09 69.66 69.15 68.40 69.07 68.69 66.44 64.21 63.88 63.14 63.24 63.97 64.47 65.30 64.79 64.03 63.06 62.65 62.00 61.62 60.11 59.61 59.75 58.49 55.80 57.40
37.89 44.48 44.27 43.42 41.72 36.58 44.61 35.88 43.84 47.22 49.31 51.52 53.17 53.88 53.71 55.08 55.84 56.04 55.72 54.47 63.02 65.07 66.53 66.63 68.52 68.66 68.84 68.56 66.83 64.87 62.41 61.09 61.89 61.65 63.20 64.45 64.33 64.17 63.67 63.09 62.40 61.68 60.70 59.84 59.75 60.67 58.56 57.50 55.50
40.35 45.95 44.00 43.61 41.02 39.90 41.09 37.48 40.41 46.83 46.11 48.18 50.92 51.91 52.65 53.65 54.11 54.66 55.72 58.21 64.24 65.01 64.89 65.85 67.99 67.51 68.23 67.02 65.01 62.66 61.87 62.33 62.65 62.45 61.78 62.17 62.15 62.97 63.25 62.70 62.03 61.07 60.75 60.04 59.99 59.37 58.91 58.40 56.86
44.78 43.08 42.73 42.36 39.88 33.25 39.44 39.31 40.03 42.86 45.94 49.03 50.94 52.55 53.74 55.83 55.26 57.35 62.76 63.83 63.95 65.34 66.14 67.11 66.78 66.12 65.86 65.45 63.68 62.35 62.39 61.65 61.35 60.75 61.12 61.81 61.51 61.45 61.52 62.16 61.25 60.80 60.47 60.48 60.45 59.65 59.17 59.76 58.72
40.49 37.27 30.30 29.82 30.84 31.17 40.63 38.73 41.53 46.18 49.40 50.53 50.68 51.33 55.08 58.78 59.33 60.73 61.64 62.57 64.03 65.53 66.34 66.20 64.19 64.01 64.72 63.38 63.74 62.78 61.89 61.65 60.85 60.03 60.58 60.24 60.43 60.00 59.95 60.25 60.15 60.36 61.36 61.94 61.52 59.73 59.05 59.11 59.18
36.24 37.45 31.30 25.05 28.42 32.75 41.14 35.68 40.65 48.85 51.18 52.13 53.14 51.37 58.40 59.25 60.08 60.37 60.96 62.82 64.71 65.09 64.51 63.29 62.81 62.97 62.49 63.64 63.20 63.18 61.95 61.30 61.05 60.86 61.04 60.76 60.09 59.69 59.91 60.16 60.54 61.69 62.22 62.23 61.80 60.99 60.29 60.03 59.51
36.42 33.51 40.95 35.16 37.55 34.39 37.11 41.41 45.88 48.29 49.54 51.31 51.93 53.44 57.03 58.50 59.73 60.43 61.38 63.46 63.75 63.14 62.80 62.75 62.54 62.50 62.52 63.13 63.37 61.93 62.38 62.25 61.57 61.15 60.45 60.37 60.03 60.46 59.96 60.64 60.74 61.46 61.96 62.09 60.74 59.79 59.56 60.33 59.71
39.55 40.83 33.90 35.66 27.79 27.31 35.80 38.34 39.96 46.04 47.83 50.38 50.40 54.54 56.77 58.62 59.72 60.03 61.65 62.60 62.99 62.87 63.33 62.54 62.32 62.17 62.59 63.09 62.48 62.04 62.32 62.24 61.89 61.02 60.65 59.56 59.68 61.33 60.45 60.05 60.69 61.24 62.47 62.02 60.96 59.73 61.02 60.35 60.07
37.58 35.41 36.56 37.01 35.95 31.05 30.31 36.45 47.64 48.79 48.48 48.57 49.67 56.90 56.80 58.27 59.42 60.71 61.80 62.51 62.36 63.19 62.56 62.06 61.97 62.03 62.30 62.23 61.58 61.09 61.93 61.87 61.26 60.93 60.21 59.64 59.67 59.29 59.65 60.26 61.40 61.95 61.83 61.65 60.96 60.47 60.68 60.44 60.55
40.51 38.29 37.77 32.75 33.44 36.31 35.57 37.80 49.52 49.17 48.86 52.84 54.84 57.03 58.00 59.20 60.14 61.09 61.46 61.71 61.95 61.88 62.13 61.36 61.47 61.39 61.99 62.67 61.99 61.50 60.96 61.82 60.93 60.32 61.48 59.79 58.85 59.42 59.59 60.50 61.88 63.18 62.74 60.81 60.98 60.44 60.31 60.51 60.28
MSLP
1011.08 1011.46 1011.48 1011.33 1011.74 1010.63 1009.28 1006.64 1005.67 1004.06 1003.07 1002.11 1001.26 1001.39 1002.01 1002.39 1003.24 1004.98 1004.71 1004.80 1005.49 1006.61 1007.42 1007.99 1008.38 1008.88 1009.25 1009.78 1010.25 1010.74 1011.21 1011.48 1011.88 1012.36 1012.71 1013.00 1013.32 1013.56 1013.90 1014.15 1014.36 1014.55 1014.60 1014.49 1014.66 1014.78 1014.87 1014.78 1014.71
1011.01 1011.17 1011.29 1011.00 1010.87 1010.09 1008.37 1005.72 1005.67 1004.21 1003.35 1001.83 1001.30 1001.50 1002.08 1003.09 1002.95 1004.16 1004.75 1004.94 1005.29 1006.53 1007.45 1007.99 1008.48 1009.01 1009.36 1009.66 1010.16 1010.68 1011.10 1011.45 1011.89 1012.26 1012.57 1012.88 1013.22 1013.46 1013.73 1014.05 1014.24 1014.41 1014.55 1014.51 1014.53 1014.64 1014.69 1014.67 1014.67
1011.30 1010.99 1011.25 1010.59 1009.78 1008.73 1007.13 1005.08 1004.65 1003.47 1003.75 1003.37 1002.95 1001.54 1001.79 1002.62 1003.03 1003.59 1003.94 1005.14 1006.04 1007.18 1008.06 1008.62 1009.04 1009.33 1009.67 1009.73 1010.11 1010.59 1011.02 1011.41 1011.81 1012.11 1012.48 1012.89 1013.16 1013.34 1013.60 1013.94 1014.06 1014.23 1014.34 1014.40 1014.42 1014.48 1014.47 1014.46 1014.57
1011.24 1010.80 1010.75 1009.90 1008.74 1007.10 1006.01 1004.93 1003.70 1004.29 1003.99 1003.48 1002.94 1002.25 1002.35 1002.30 1002.79 1003.47 1004.25 1005.00 1005.82 1006.80 1007.44 1008.25 1009.00 1009.37 1009.66 1009.90 1010.16 1010.53 1010.96 1011.40 1011.74 1012.00 1012.30 1012.79 1013.01 1013.19 1013.39 1013.77 1013.98 1014.09 1014.08 1014.09 1014.15 1014.21 1014.29 1014.33 1014.38
1011.21 1010.75 1010.68 1009.52 1007.95 1006.24 1004.76 1003.44 1003.06 1003.34 1003.49 1004.04 1003.51 1002.03 1002.95 1002.93 1002.73 1003.11 1003.89 1004.42 1005.10 1006.05 1006.39 1007.02 1007.86 1008.66 1009.30 1009.67 1009.95 1010.43 1010.79 1011.20 1011.47 1011.72 1011.99 1012.42 1012.77 1012.96 1013.15 1013.41 1013.68 1013.86 1013.86 1013.84 1013.91 1014.01 1014.14 1014.24 1014.27
1010.82 1010.38 1010.34 1009.24 1007.65 1005.39 1003.76 1003.15 1002.70 1002.30 1001.92 1002.05 1001.71 1001.88 1002.67 1002.78 1002.64 1002.81 1002.77 1003.72 1004.10 1005.04 1005.85 1006.32 1006.90 1007.71 1008.27 1009.00 1009.70 1010.17 1010.52 1010.86 1011.17 1011.39 1011.58 1011.99 1012.36 1012.59 1012.79 1013.05 1013.26 1013.40 1013.50 1013.60 1013.71 1013.82 1013.88 1013.96 1014.00
1010.43 1010.82 1009.93 1008.89 1007.35 1005.15 1003.19 1002.61 1002.15 1001.93 1001.06 1001.50 1001.29 1002.00 1002.90 1002.63 1002.28 1002.36 1002.28 1002.52 1003.54 1004.17 1005.16 1005.93 1006.42 1006.94 1007.57 1008.06 1008.80 1009.58 1010.02 1010.36 1010.72 1011.00 1011.15 1011.46 1011.76 1012.08 1012.33 1012.61 1012.81 1013.01 1013.17 1013.29 1013.41 1013.53 1013.63 1013.68 1013.71
1009.72 1010.60 1009.88 1008.82 1007.06 1004.96 1002.88 1002.62 1001.82 1001.50 1000.98 1001.22 1001.18 1001.91 1002.53 1002.55 1002.08 1001.87 1001.75 1001.69 1002.30 1003.74 1004.34 1005.04 1005.86 1006.28 1006.89 1007.55 1008.02 1008.70 1009.39 1009.88 1010.27 1010.59 1010.74 1010.96 1011.28 1011.53 1011.82 1012.03 1012.39 1012.64 1012.76 1012.93 1013.08 1013.22 1013.28 1013.28 1013.35
1009.02 1009.65 1009.18 1008.35 1006.69 1004.90 1003.36 1002.58 1001.42 1001.15 1000.82 1001.04 1001.27 1001.68 1002.09 1001.80 1001.62 1001.71 1002.01 1001.81 1001.90 1003.53 1004.01 1004.87 1005.46 1005.87 1006.20 1006.70 1007.11 1007.60 1008.46 1009.25 1009.85 1010.13 1010.28 1010.56 1010.93 1011.10 1011.29 1011.45 1011.87 1012.07 1012.20 1012.48 1012.67 1012.85 1012.92 1012.95 1013.00
1008.87 1007.72 1007.29 1006.99 1006.29 1005.00 1003.71 1003.04 1001.86 1001.55 1001.31 1001.64 1001.39 1000.86 1001.86 1001.84 1001.68 1001.64 1002.10 1002.29 1002.34 1002.48 1003.63 1004.11 1004.90 1005.24 1005.75 1006.09 1006.47 1007.01 1007.42 1008.34 1009.01 1009.50 1009.71 1010.06 1010.48 1010.66 1010.67 1010.79 1011.19 1011.40 1011.55 1011.97 1012.34 1012.29 1012.52 1012.67 1012.76
1007.63 1006.32 1006.56 1006.26 1005.68 1004.81 1003.92 1003.07 1002.17 1001.76 1001.31 1001.74 1001.93 1001.69 1001.17 1001.97 1001.78 1001.65 1001.64 1001.72 1002.04 1002.06 1002.86 1003.57 1003.90 1004.42 1004.82 1005.24 1005.99 1006.66 1006.87 1007.51 1008.29 1008.79 1009.14 1009.54 1009.93 1010.16 1010.30 1010.57 1010.74 1011.14 1011.31 1011.70 1011.91 1012.03 1012.28 1012.37 1012.45
1007.04 1006.02 1005.94 1005.62 1005.35 1004.66 1003.66 1003.16 1002.11 1001.60 1001.51 1001.41 1001.16 1001.15 1001.46 1001.64 1001.47 1001.33 1001.26 1001.34 1001.59 1001.63 1001.57 1002.28 1003.17 1004.02 1004.53 1004.63 1005.18 1005.67 1006.24 1006.73 1007.39 1008.06 1008.60 1009.12 1009.56 1009.84 1010.20 1010.38 1010.55 1010.90 1011.08 1011.45 1011.70 1011.77 1011.95 1012.15 1011.98
1005.96 1005.54 1005.37 1004.72 1004.59 1003.93 1003.50 1002.61 1001.78 1001.18 1000.97 1000.70 1000.67 1000.81 1001.01 1000.98 1000.95 1000.72 1000.65 1000.70 1000.73 1001.25 1001.11 1001.52 1002.24 1002.94 1003.40 1003.85 1004.38 1004.84 1005.38 1005.96 1006.58 1007.34 1007.92 1008.45 1009.04 1009.42 1009.75 1009.88 1010.04 1010.42 1010.62 1010.96 1011.50 1011.61 1011.64 1011.81 1011.75
1006.04 1005.46 1004.72 1004.25 1003.61 1003.15 1002.91 1002.10 1001.50 1001.01 1000.80 1000.44 1000.37 1000.44 1000.51 1000.42 1000.49 1000.23 1000.09 1000.13 1000.34 1000.26 1000.55 1000.87 1001.27 1001.91 1002.70 1003.15 1003.59 1003.94 1004.64 1005.30 1005.95 1006.59 1007.20 1007.83 1008.45 1009.09 1009.48 1009.79 1010.01 1010.18 1010.26 1010.52 1010.90 1011.25 1011.39 1011.55 1011.61
1006.15 1005.73 1004.71 1003.45 1003.07 1002.29 1002.66 1001.06 1000.28 1000.76 1000.45 1000.00 1000.00 999.93 999.84 999.65 999.70 999.72 999.52 999.59 999.50 999.47 999.64 1000.05 1000.55 1001.20 1002.05 1002.64 1003.03 1003.50 1003.98 1004.59 1005.30 1006.06 1006.56 1007.18 1007.86 1008.63 1009.12 1009.53 1009.80 1010.00 1009.99 1010.18 1010.47 1010.88 1011.04 1011.27 1011.38
1006.02 1005.79 1004.45 1002.71 1002.63 1001.72 1002.97 998.47 1000.55 1000.43 1000.11 999.75 999.56 999.43 999.19 998.96 998.80 998.90 998.87 998.99 998.72 998.88 999.09 999.43 999.64 1000.52 1001.24 1001.93 1002.59 1003.16 1003.66 1004.14 1004.79 1005.56 1006.23 1006.76 1007.42 1007.99 1008.70 1009.13 1009.45 1009.64 1009.90 1010.16 1010.53 1010.68 1010.91 1011.09 1011.20
1005.63 1004.75 1003.71 1002.17 1001.95 1002.13 1002.16 998.71 999.95 999.95 999.62 999.13 998.78 998.49 998.26 998.04 998.15 998.03 998.21 998.18 998.18 997.97 998.23 998.83 999.29 999.77 1000.71 1001.50 1002.28 1002.79 1003.31 1003.82 1004.43 1005.25 1005.99 1006.56 1007.08 1007.61 1008.29 1008.73 1009.13 1009.31 1009.81 1010.04 1010.27 1010.43 1010.62 1010.85 1010.92
1004.86 1004.16 1002.31 1001.11 1002.15 1001.58 1001.30 999.83 999.68 999.23 998.95 998.57 998.08 997.75 997.32 997.43 997.36 997.26 997.16 997.13 997.35 997.65 997.85 998.15 998.67 999.25 1000.23 1001.09 1002.00 1002.70 1003.22 1003.77 1004.27 1004.98 1005.77 1006.10 1006.69 1007.19 1007.88 1008.43 1008.95 1009.27 1009.58 1009.73 1009.94 1010.17 1010.29 1010.45 1010.57
1004.24 1003.16 1002.28 1001.60 1002.00 1001.78 1000.57 1000.08 999.42 998.23 997.83 997.49 997.40 997.25 997.27 996.99 996.82 996.21 996.58 996.78 996.82 997.02 997.46 997.91 998.59 999.39 1000.17 1001.07 1001.96 1002.80 1003.49 1004.03 1004.50 1005.11 1005.62 1006.01 1006.36 1007.00 1007.80 1008.27 1008.72 1008.99 1009.23 1009.42 1009.68 1009.95 1010.21 1010.26 1010.24
1004.52 1003.39 1001.84 1001.73 1001.39 1000.75 1000.15 999.72 998.76 997.77 997.28 997.06 996.93 996.74 996.72 996.47 996.21 996.11 996.15 996.34 996.67 996.96 997.27 997.82 998.46 998.99 999.76 1000.50 1001.38 1002.20 1003.24 1003.91 1004.29 1004.93 1005.52 1005.93 1006.45 1006.90 1007.40 1007.95 1008.39 1008.72 1009.05 1009.22 1009.40 1009.63 1009.90 1009.96 1010.08
1003.22 1002.82 1002.51 1002.21 1002.25 1000.79 1000.58 999.70 998.72 997.40 996.69 996.52 996.27 996.04 995.79 995.44 995.61 995.51 995.57 995.76 996.28 996.89 997.30 997.65 998.40 999.05 999.76 1000.52 1001.48 1002.45 1003.32 1003.97 1004.64 1005.20 1005.52 1005.79 1006.20 1006.80 1007.43 1007.91 1008.22 1008.51 1008.75 1009.02 1009.10 1009.20 1009.50 1009.86 1009.98
1002.47 1002.56 1002.49 1002.65 1002.43 1001.31 1001.19 999.62 998.23 997.55 996.73 996.23 995.89 995.39 995.23 994.71 994.51 994.61 994.94 995.48 996.10 996.95 997.29 997.62 998.66 999.31 1000.00 1000.60 1001.57 1002.43 1003.51 1004.35 1004.71 1005.10 1005.45 1005.90 1006.38 1006.91 1007.32 1007.75 1008.07 1008.31 1008.52 1008.66 1008.76 1008.93 1009.24 1009.62 1009.88
1001.40 1002.27 1002.43 1002.38 1002.07 1001.71 1000.77 1000.26 996.89 997.16 996.37 996.04 995.20 994.76 994.27 993.97 993.86 994.01 994.16 995.09 996.31 997.09 997.77 998.44 999.19 999.84 1000.34 1000.91 1001.66 1002.51 1003.44 1003.94 1004.65 1005.26 1005.80 1006.20 1006.59 1006.88 1007.28 1007.63 1007.88 1008.04 1008.17 1008.31 1008.50 1008.74 1008.91 1009.08 1009.40
1002.30 1002.27 1002.48 1002.40 1002.38 1001.74 999.64 999.70 995.99 996.72 996.13 995.00 994.64 994.14 993.73 993.48 993.07 993.56 994.57 995.56 996.77 997.47 998.23 999.09 999.71 1000.35 1000.78 1001.28 1001.97 1002.64 1003.41 1004.14 1004.96 1005.49 1006.11 1006.63 1006.90 1007.10 1007.28 1007.50 1007.63 1007.84 1007.98 1008.14 1008.29 1008.34 1008.48 1008.64 1008.80
1002.05 1002.40 1002.79 1002.46 1001.97 999.21 999.51 998.66 996.03 995.25 994.49 993.88 993.89 993.70 993.89 993.61 994.05 994.82 995.38 996.36 997.22 998.09 998.81 999.52 1000.14 1000.94 1001.21 1001.68 1002.38 1002.99 1003.60 1004.25 1004.90 1005.43 1005.98 1006.45 1006.96 1007.31 1007.34 1007.33 1007.51 1007.72 1007.84 1007.93 1007.98 1008.08 1008.21 1008.23 1008.44
1001.58 1001.91 1001.93 1001.36 1000.58 999.36 999.41 997.36 994.86 993.13 993.14 992.86 992.87 993.27 993.79 994.29 994.86 995.70 996.44 997.27 997.86 998.59 999.23 999.98 1000.62 1001.34 1001.71 1002.19 1002.87 1003.50 1003.92 1004.51 1004.99 1005.39 1005.89 1006.43 1006.94 1007.12 1007.10 1007.26 1007.35 1007.52 1007.60 1007.67 1007.67 1007.83 1007.95 1007.87 1008.04
1001.51 1001.01 1000.37 1001.34 1000.83 999.86 998.00 996.09 994.67 992.87 992.53 992.26 992.29 993.23 993.91 994.72 995.44 996.05 996.89 997.73 998.43 999.19 999.80 1000.30 1000.98 1001.60 1002.08 1002.71 1003.35 1003.89 1004.23 1004.67 1005.25 1005.60 1005.82 1006.30 1006.63 1006.88 1007.05 1007.15 1007.22 1007.37 1007.42 1007.46 1007.56 1007.67 1007.64 1007.56 1007.71
1000.72 1000.50 1000.88 1000.75 1000.78 999.64 997.39 995.60 993.79 991.63 991.47 991.62 991.77 993.05 994.04 994.91 995.71 996.43 997.33 998.16 998.91 999.57 1000.10 1000.67 1001.24 1001.86 1002.43 1003.10 1003.68 1004.23 1004.72 1004.95 1005.34 1005.77 1006.14 1006.30 1006.62 1006.77 1007.01 1007.00 1007.05 1007.12 1007.11 1007.13 1007.37 1007.44 1007.35 1007.46 1007.50
1001.05 1000.43 1000.61 1000.20 999.90 999.00 997.88 994.87 991.64 991.17 990.66 991.20 991.50 992.53 993.80 994.75 995.65 996.40 997.50 998.40 999.18 999.90 1000.47 1001.06 1001.61 1002.21 1002.79 1003.37 1003.88 1004.32 1004.69 1005.04 1005.43 1005.78 1006.02 1006.30 1006.59 1006.70 1006.84 1006.78 1006.77 1006.88 1006.88 1006.99 1007.25 1007.24 1007.25 1007.43 1007.47
1001.91 1001.15 1000.66 1000.44 999.14 998.26 996.94 994.14 991.31 990.39 990.42 990.63 991.80 992.66 993.71 994.58 995.57 996.57 997.54 998.40 999.39 1000.08 1000.69 1001.35 1001.89 1002.46 1002.96 1003.49 1003.93 1004.44 1004.86 1005.15 1005.61 1005.82 1005.99 1006.33 1006.55 1006.62 1006.68 1006.62 1006.62 1006.62 1007.01 1007.24 1007.17 1007.36 1007.19 1007.23 1007.35
Wind_Speed
3 3 2 2 4 1 4 9 7 6 9 5 5 6 3 3 6 5 3 13 18 18 16 17 21 20 20 19 18 18 16 16 15 14 14 13 12 11 10 8 7 5 4 4 2 2 3 3 3
3 5 2 3 2 2 6 10 4 1 5 14 13 2 5 3 12 9 6 13 18 17 14 14 20 19 19 19 18 18 17 16 16 15 14 13 11 10 9 7 6 5 5 5 5 5 5 6 5
4 8 1 4 4 6 6 4 1 6 8 6 7 2 1 5 6 6 8 14 16 13 10 9 16 17 17 19 18 18 17 16 16 15 14 13 12 10 8 7 6 6 7 7 7 7 7 7 8
4 2 4 2 9 12 10 12 10 4 6 19 21 6 4 2 4 8 17 19 17 16 15 16 16 16 17 17 18 18 17 16 15 15 14 13 12 11 10 9 8 8 8 8 9 10 9 8 7
3 2 3 4 9 13 16 16 10 9 9 13 33 7 8 4 12 11 17 18 19 16 17 20 23 20 18 17 18 17 17 16 16 16 16 14 12 10 10 9 9 9 9 10 10 11 9 8 9
2 2 2 6 12 18 17 14 7 9 8 15 3 6 5 6 9 10 11 18 19 19 18 18 26 23 22 20 18 18 17 17 17 16 16 14 12 11 9 9 9 9 10 9 8 8 7 6 8
3 3 6 7 14 21 19 10 7 5 6 3 3 5 7 8 9 10 10 9 18 18 17 16 19 23 24 23 21 19 18 18 18 17 16 14 13 12 11 10 9 9 9 9 9 9 10 8 8
4 2 5 7 13 21 18 13 7 5 4 2 4 4 1 6 9 8 8 6 8 16 17 17 16 18 18 17 22 21 19 18 17 17 16 15 14 13 12 12 10 11 11 11 10 10 10 10 10
5 4 5 13 13 16 17 17 14 7 6 4 5 5 6 15 10 4 2 3 4 15 16 15 16 17 17 16 18 23 22 19 18 17 16 13 6 7 10 10 14 14 14 13 13 12 11 11 12
11 7 12 17 18 15 15 11 19 17 6 6 15 10 19 19 6 3 2 3 5 2 17 16 16 17 16 13 15 15 14 12 11 11 11 7 7 6 7 9 17 15 14 14 14 13 11 10 4
14 20 15 18 17 19 20 22 16 18 8 7 9 9 17 11 18 1 2 3 6 6 11 17 17 16 17 14 10 8 8 8 8 12 10 8 7 5 4 3 5 4 11 5 7 6 4 6 5
17 21 21 17 19 23 25 22 21 18 13 9 10 12 5 12 8 7 7 7 8 9 6 20 16 14 15 10 11 11 9 10 9 9 11 8 5 5 5 4 5 5 4 6 5 4 5 7 7
25 22 19 20 21 24 24 25 24 24 18 13 11 14 10 10 9 7 10 9 9 8 10 16 19 18 16 13 11 11 11 10 10 9 10 8 7 5 4 4 3 4 5 5 4 5 6 8 6
17 18 22 19 23 23 24 25 21 20 13 16 18 16 15 10 11 8 8 10 10 9 10 11 18 19 16 14 14 11 10 10 10 9 10 9 6 5 5 4 4 4 5 4 4 4 4 3 3
20 22 20 23 21 20 16 27 31 18 13 17 12 14 14 11 12 11 10 10 11 8 8 11 15 16 16 16 11 10 9 10 10 7 11 11 8 7 5 4 3 3 3 3 2 3 2 3 3
17 18 21 21 23 22 15 44 14 16 22 21 25 23 19 13 10 9 10 9 9 8 9 9 12 15 15 13 7 8 8 9 8 7 8 11 8 8 5 4 3 4 3 3 3 3 3 4 4
10 18 23 26 21 16 11 33 15 21 23 21 19 22 23 21 11 11 10 10 10 11 10 9 10 15 14 9 7 6 8 7 7 6 7 10 10 8 6 5 4 4 4 3 3 4 4 3 4
13 19 23 27 9 12 22 32 28 29 27 26 23 21 18 18 15 12 12 9 9 7 9 10 9 13 12 8 6 4 4 5 5 5 6 10 8 8 6 4 4 5 3 4 3 5 4 4 4
16 20 21 16 16 18 26 26 26 26 22 18 17 10 8 10 10 6 5 7 9 7 7 9 10 10 12 9 8 5 5 4 4 5 7 8 6 6 6 5 5 5 4 4 3 3 5 3 3
22 25 24 13 10 15 16 15 19 16 13 9 10 9 9 8 8 9 9 8 9 7 8 9 10 15 11 10 6 5 5 3 4 4 5 8 8 7 5 5 5 4 2 4 3 4 3 3 4
25 24 17 18 14 22 17 18 19 19 14 11 12 10 10 18 12 12 10 9 6 8 9 10 11 12 9 10 7 5 5 4 3 2 3 5 7 6 6 5 4 3 3 3 4 4 5 3 3
24 13 20 20 15 15 11 18 19 11 16 19 15 16 15 20 18 15 11 8 9 8 9 10 10 11 9 11 8 10 5 5 3 3 3 4 7 6 7 5 5 4 3 3 3 3 3 3 4
23 11 19 16 16 16 18 10 5 9 10 10 13 13 13 14 13 12 11 7 11 11 9 8 10 9 9 9 8 7 7 4 4 5 8 7 5 6 4 5 4 4 3 3 4 3 4 3 3
16 16 19 16 11 13 17 16 17 13 6 13 10 14 15 6 4 6 15 16 12 11 10 10 10 7 8 9 9 9 9 8 8 5 5 4 3 3 3 4 4 4 3 3 3 4 5 5 5
15 13 7 10 10 18 13 13 17 11 14 18 12 10 3 9 11 12 16 15 14 13 12 9 10 8 9 10 9 9 9 9 8 7 5 6 3 2 3 2 4 3 3 3 3 2 4 4 4
13 13 9 14 9 16 13 9 11 22 15 12 14 9 12 12 13 13 12 12 14 14 11 12 10 9 9 9 9 8 8 5 4 5 5 4 4 4 4 3 4 3 3 3 1 1 2 3 3
19 19 18 15 11 8 6 11 23 26 19 11 17 9 13 13 13 15 12 12 13 11 11 11 9 9 9 9 7 7 6 7 7 6 5 4 5 4 4 5 4 3 3 3 2 2 3 3 2
19 7 6 11 13 13 6 14 11 10 18 10 10 12 14 14 15 12 13 13 11 10 11 9 9 9 8 9 7 7 8 7 6 5 5 7 5 4 5 5 5 5 4 4 4 3 3 3 3
10 16 12 7 10 10 7 11 13 8 9 10 10 18 16 16 15 14 14 13 10 12 9 8 8 8 8 8 6 7 7 7 6 5 6 6 5 5 5 5 5 5 2 3 2 3 3 4 4
18 21 15 9 18 5 5 11 11 5 7 7 15 14 15 17 16 16 16 13 13 10 10 8 7 8 7 7 7 7 7 7 6 4 7 6 4 4 4 6 0 4 4 4 2 2 1 1 3
Wind_Direction
161 187 238 356 40 148 258 262 277 314 355 325 30 53 32 33 87 158 200 122 126 146 158 160 159 156 152 150 151 149 151 147 149 151 150 150 151 148 149 151 156 167 175 172 197 236 265 250 239
211 212 265 270 126 257 268 253 142 140 257 12 341 299 84 82 97 114 98 146 138 146 156 159 159 159 158 154 154 155 157 158 158 158 156 156 157 156 157 166 176 190 204 205 214 231 245 253 246
315 269 333 179 205 196 233 290 79 118 352 309 11 316 53 134 99 129 135 130 117 127 138 150 162 161 163 159 159 161 164 165 164 161 161 164 166 166 169 184 197 213 223 227 233 237 242 254 248
220 318 298 259 260 266 254 266 129 70 351 353 289 122 70 34 75 132 126 125 128 143 150 153 166 170 171 168 167 168 169 171 169 166 166 173 176 178 181 199 217 228 236 243 249 247 245 252 265
244 283 239 241 257 263 266 267 180 144 134 190 248 164 114 68 119 126 131 141 145 157 162 160 168 174 179 178 174 175 174 176 175 174 173 180 182 184 188 203 223 236 241 249 257 266 271 269 263
269 166 276 234 262 263 271 279 194 188 184 240 25 110 117 169 131 165 159 166 160 160 167 168 169 177 177 180 181 180 180 181 183 182 179 182 183 188 192 209 226 239 250 256 262 267 265 257 257
118 351 242 259 264 279 278 328 355 334 29 58 62 105 177 161 176 170 181 177 168 164 161 169 176 177 179 181 180 183 185 187 188 187 184 185 185 190 197 214 227 228 226 239 245 247 253 253 249
141 186 281 275 263 275 291 310 294 321 323 37 99 73 284 208 190 179 180 179 157 170 165 172 174 177 178 182 180 181 188 192 190 191 190 188 189 192 202 209 203 214 225 233 238 241 242 243 242
170 202 227 249 251 264 291 305 306 291 158 308 354 123 332 323 288 76 261 295 283 163 169 169 173 180 182 183 184 180 186 191 192 194 194 190 184 198 213 207 200 214 215 219 227 238 242 239 237
212 224 225 242 266 278 280 282 295 305 360 339 310 15 310 303 337 30 339 287 292 266 177 173 175 183 179 187 183 183 180 184 187 194 190 181 190 200 209 192 203 206 200 209 225 230 234 239 211
230 241 236 249 263 269 282 293 297 300 305 264 297 189 238 212 247 150 320 293 268 261 169 178 181 183 181 183 176 183 181 175 185 193 187 186 192 203 196 176 181 194 196 200 216 230 225 214 215
250 238 238 249 250 270 275 281 284 285 280 273 294 298 216 233 256 222 233 251 255 255 244 179 179 178 188 180 178 175 179 181 182 192 188 180 189 187 194 187 188 189 183 197 209 204 203 224 234
233 244 248 245 244 248 261 269 274 275 285 287 289 296 289 279 252 236 224 225 238 243 234 171 175 183 185 185 177 175 183 180 174 182 190 183 184 178 194 215 194 184 172 182 204 212 209 209 232
268 264 253 251 244 248 253 261 268 266 272 280 281 279 276 260 260 259 239 237 242 228 224 162 178 184 180 186 179 179 176 169 173 180 186 179 168 171 186 203 199 193 171 179 188 178 183 205 230
267 275 282 263 259 258 261 268 259 274 271 268 270 277 265 264 259 240 239 234 226 203 200 169 172 177 181 190 175 175 170 167 175 173 176 169 161 171 174 182 177 198 170 177 200 218 193 208 258
247 257 258 256 260 261 247 265 264 282 275 277 279 269 269 252 248 262 266 247 210 187 189 176 177 177 182 184 165 163 162 167 168 154 163 164 159 165 178 187 216 188 172 175 202 222 220 217 220
240 240 245 253 241 251 233 266 273 276 270 271 262 260 259 257 247 245 249 219 204 196 196 184 171 170 177 156 151 143 149 142 145 141 144 160 169 167 169 190 212 181 168 185 204 221 197 209 224
217 227 238 249 247 238 235 251 260 261 262 259 261 253 252 252 241 232 239 239 222 211 200 183 171 167 166 149 134 120 125 135 132 146 158 160 162 171 179 180 186 154 165 211 218 214 215 197 209
259 239 248 247 236 251 251 260 262 265 263 262 267 254 262 257 249 249 250 241 223 228 205 188 144 155 146 151 153 150 142 136 126 140 151 153 158 159 160 170 155 169 190 203 218 196 221 261 208
242 258 262 281 255 251 257 260 252 257 260 241 245 264 261 251 251 249 254 238 220 226 196 158 152 151 155 160 147 132 130 137 136 146 145 150 152 161 155 159 162 174 179 234 239 204 200 215 169
231 239 255 262 283 283 298 290 283 279 280 281 274 249 246 258 249 249 246 226 208 155 149 139 138 140 129 132 116 101 90 77 81 109 141 155 143 118 129 151 151 170 189 226 231 203 197 217 224
242 240 238 252 257 257 246 271 256 265 263 261 258 254 248 251 249 243 236 238 146 138 116 106 116 122 120 133 124 138 138 142 162 137 130 123 105 118 123 143 157 186 186 194 196 202 199 160 201
250 245 248 265 244 258 255 261 247 205 250 270 268 264 261 254 237 228 210 157 123 118 112 109 112 117 122 131 128 128 115 134 116 118 109 113 107 113 140 157 165 167 178 201 193 205 197 189 170
266 252 247 261 262 268 243 229 257 242 233 254 262 264 279 246 244 108 110 115 111 108 106 114 115 107 114 119 119 121 127 126 122 118 116 128 134 146 142 171 176 179 180 208 213 200 207 205 198
259 228 247 235 230 241 214 252 263 247 226 234 249 266 135 91 80 98 113 120 117 115 115 110 109 106 107 109 97 100 99 110 118 124 129 128 125 126 195 197 142 170 180 192 218 211 218 208 188
253 227 209 214 200 255 259 255 253 246 247 238 248 215 120 106 107 104 108 113 115 116 111 117 111 104 106 101 102 103 110 115 111 113 128 140 151 167 178 155 145 177 194 211 229 196 220 245 219
251 248 225 254 284 264 245 243 264 260 259 241 238 153 128 123 121 123 118 117 118 122 117 125 117 113 110 109 107 109 88 90 109 110 120 127 139 153 171 167 167 207 220 194 222 240 239 226 240
237 253 224 218 230 253 254 253 239 251 230 238 149 135 127 128 124 122 119 121 126 117 125 116 114 118 122 118 119 119 120 110 112 121 138 136 150 161 168 186 196 218 230 220 192 220 231 212 265
286 235 240 238 207 236 241 266 247 236 176 181 148 142 138 132 133 125 124 129 121 127 125 126 123 124 125 125 140 131 139 136 135 128 124 125 133 148 177 207 212 224 232 181 170 224 209 218 214
278 281 224 228 222 260 215 261 333 91 146 128 145 129 128 129 128 126 131 126 130 129 128 128 128 130 135 139 133 132 129 120 115 116 127 142 157 189 215 233 268 130 101 84 94 332 188 252 228